Miscellaneous Local Product
Issued by NWS Hastings, NE

Home | Current Version | Previous Version | Text Only | Print | Product List | Glossary Off
Versions: 1 2 3 4 5 6 7 8 9 10 11 12 13 14 15 16 17 18 19 20 21 22 23 24 25 26 27 28 29 30 31 32 33 34 35 36 37 38 39 40 41 42 43 44 45 46 47 48 49 50

000
AXUS43 KGID 220802
MISGRI

GID CWA HOURLY WEATHER ROUNDUP
NATIONAL WEATHER SERVICE HASTINGS NE
200 AM CST SUN JAN 22 2017

NOTE: "FAIR" INDICATES FEW OR NO CLOUDS BELOW 12,000 FEET WITH NO
SIGNIFICANT WEATHER AND/OR OBSTRUCTIONS TO VISIBILITY.

...SOUTH CENTRAL NEBRASKA...

CITY           SKY/WX    TMP DP  RH WIND       PRES   REMARKS
GRAND ISLAND   CLOUDY    33  30  88 NW10      29.62R WCI  25
HASTINGS       CLOUDY    34  30  85 N12       29.62R WCI  25
ORD            CLEAR     29  25  85 NW8       29.63R WCI  21
YORK           CLEAR     32  32 100 N7        29.60S WCI  26
AURORA         CLOUDY    32  32  99 NW9       29.61R WCI  24
LEXINGTON      CLOUDY    31  28  91 W7        29.64S WCI  24
HOLDREGE       CLOUDY    32  30  92 N7        29.63R WCI  26
HEBRON         PTCLDY    33  33 100 CALM      29.59R FOG

...NEBRASKA PANHANDLE...

CITY           SKY/WX    TMP DP  RH WIND       PRES   REMARKS
CHADRON        CLOUDY    20  18  92 SW5       29.71R WCI  13
ALLIANCE       PTCLDY    22  20  92 W5        29.68R WCI  16
SCOTTSBLUFF    MOCLDY    28  24  85 NW6       29.71R WCI  22
SIDNEY         CLOUDY    32  25  75 NW14      29.69R WCI  22

...WESTERN AND NORTH CENTRAL NEBRASKA...

CITY           SKY/WX    TMP DP  RH WIND       PRES   REMARKS
VALENTINE      CLEAR     27  23  85 W10       29.67R WCI  17
AINSWORTH      CLEAR     28  26  96 W6        29.65R WCI  21
ONEILL         CLEAR     31  29  94 NW9       29.64R WCI  23
BROKEN BOW     CLEAR     32  29  88 N6        29.64R WCI  26
IMPERIAL       CLEAR     30  25  81 NW7       29.67R WCI  23
NORTH PLATTE   CLOUDY    25  23  92 NW3       29.67R
MCCOOK         CLOUDY    30  27  88 NW10      29.65R WCI  21

...EASTERN NEBRASKA...

CITY           SKY/WX    TMP DP  RH WIND       PRES   REMARKS
NORFOLK        CLEAR     26  25  96 NW8       29.61S WCI  18
SO SIOUX CITY  CLOUDY    32  30  92 NW10      29.63S WCI  24
TEKAMAH        CLEAR     31  28  89 N3        29.62R
COLUMBUS       CLEAR     30  28  93 CALM      29.63R
ALBION         CLEAR     30  26  83 NW7       29.62S WCI  24
OMAHA EPPLEY   PTCLDY    31  27  85 N8        29.61R WCI  23
OFFUTT AFB     CLOUDY    31  31 100 CALM      29.60R
MILLARD        CLOUDY    35  32  89 NW5       29.61R WCI  31
LINCOLN        PTCLDY    31  30  96 N6        29.61R WCI  25
NEBRASKA CITY  CLEAR     37  34  86 N6        29.58R WCI  33
BEATRICE       CLEAR     31  30  99 CALM      29.58R FOG
FALLS CITY     PTCLDY    34  34 100 NW5       29.56R WCI  30

...NORTHERN KANSAS...

CITY           SKY/WX    TMP DP  RH WIND       PRES   REMARKS
GOODLAND       CLEAR     28  25  88 NW9       29.65R WCI  19
HILL CITY      CLOUDY    33  30  88 N12       29.62R WCI  24
NORTON         SUNNY     34  27  75 NW12      29.61S WCI  25
PHILLIPSBURG   CLEAR     32  32 100 W9        29.62R WCI  24
SMITH CENTER   CLEAR     30  30 100 N7        29.61R WCI  23
RUSSELL        PTCLDY    35  33  92 N10       29.56R WCI  27
CONCORDIA      CLEAR     35  34  96 NW7       29.57R WCI  29
SALINA           N/A    N/A N/A N/A MISG        N/A
TOPEKA         CLOUDY    46  42  86 N6        29.52S



USA.gov is the U.S. government's official web portal to all federal, state and local government web resources and services.